AEA9156 LEMD-GCLP

Flight info

Callsign AEA9156
Flight time N/A
Altitude 37000
Route VTB N10 HIJ N857 KORNO UN857 TERTO
Aircraft B738/M-SDE2E3FGHIRWXY/LB1

Departure

Time N/A
Airport Adolfo Suárez Madrid–Barajas Airport (LEMD)

Arrival

Time 2026-05-07 17:53
Airport Gran Canaria Airport (GCLP)
Time Latitude Longitude Altitude Speed Heading
2026-05-07 17:31 28.31045 -14.34853 23801 ft 347 kts 225°
2026-05-07 17:31 28.29213 -14.36626 23324 ft 345 kts 225°
2026-05-07 17:31 28.27392 -14.38388 22830 ft 342 kts 225°
2026-05-07 17:31 28.25589 -14.40130 22370 ft 339 kts 224°
2026-05-07 17:32 28.23813 -14.41847 21926 ft 335 kts 224°
2026-05-07 17:32 28.22044 -14.43556 21489 ft 332 kts 224°
2026-05-07 17:32 28.20292 -14.45248 21064 ft 329 kts 224°
2026-05-07 17:32 28.18556 -14.46925 20648 ft 326 kts 224°
2026-05-07 17:33 28.16833 -14.48587 20218 ft 324 kts 224°
2026-05-07 17:33 28.15119 -14.50242 19812 ft 325 kts 224°
2026-05-07 17:33 28.13398 -14.51903 19403 ft 325 kts 224°
2026-05-07 17:33 28.11699 -14.53541 18995 ft 325 kts 224°
2026-05-07 17:34 28.09978 -14.55199 18578 ft 324 kts 224°
2026-05-07 17:34 28.08245 -14.56868 18124 ft 322 kts 224°
2026-05-07 17:34 28.06563 -14.58486 17670 ft 320 kts 224°
2026-05-07 17:34 28.04871 -14.60115 17238 ft 318 kts 224°
2026-05-07 17:35 28.03192 -14.61730 16823 ft 315 kts 223°
2026-05-07 17:35 28.01530 -14.63326 16415 ft 313 kts 223°
2026-05-07 17:35 27.99878 -14.64917 16013 ft 310 kts 224°
2026-05-07 17:35 27.98333 -14.66603 15610 ft 307 kts 228°
2026-05-07 17:36 27.96863 -14.68353 15229 ft 307 kts 229°
2026-05-07 17:36 27.95404 -14.70122 14831 ft 309 kts 229°
2026-05-07 17:36 27.93938 -14.71894 14435 ft 308 kts 229°
2026-05-07 17:36 27.92474 -14.73651 14035 ft 306 kts 229°
2026-05-07 17:37 27.91012 -14.75396 13621 ft 305 kts 228°
2026-05-07 17:37 27.89558 -14.77124 13189 ft 303 kts 228°
2026-05-07 17:37 27.88106 -14.78843 12790 ft 301 kts 228°
2026-05-07 17:37 27.86664 -14.80548 12400 ft 300 kts 228°
2026-05-07 17:38 27.85216 -14.82259 12016 ft 302 kts 228°
2026-05-07 17:38 27.83759 -14.83979 11637 ft 303 kts 228°
2026-05-07 17:38 27.82305 -14.85693 11249 ft 301 kts 228°
2026-05-07 17:38 27.80859 -14.87396 10857 ft 299 kts 228°
2026-05-07 17:39 27.79430 -14.89079 10661 ft 292 kts 229°
2026-05-07 17:39 27.78050 -14.90702 10512 ft 283 kts 229°
2026-05-07 17:39 27.76711 -14.92279 10398 ft 274 kts 229°
2026-05-07 17:39 27.75414 -14.93805 10283 ft 265 kts 229°
2026-05-07 17:40 27.74157 -14.95284 10163 ft 257 kts 229°
2026-05-07 17:40 27.72929 -14.96728 10065 ft 254 kts 229°
2026-05-07 17:40 27.71719 -14.98150 9956 ft 247 kts 229°
2026-05-07 17:40 27.70544 -14.99528 9849 ft 240 kts 229°
2026-05-07 17:41 27.69497 -15.00957 9593 ft 236 kts 243°
2026-05-07 17:41 27.68787 -15.02623 9349 ft 237 kts 246°
2026-05-07 17:41 27.68079 -15.04305 9060 ft 237 kts 246°
2026-05-07 17:41 27.67363 -15.05979 8799 ft 236 kts 246°
2026-05-07 17:42 27.66643 -15.07646 8526 ft 236 kts 246°
2026-05-07 17:42 27.65923 -15.09300 8295 ft 235 kts 246°
2026-05-07 17:42 27.65202 -15.10953 8040 ft 234 kts 246°
2026-05-07 17:42 27.64482 -15.12602 7789 ft 233 kts 246°
2026-05-07 17:43 27.63830 -15.14235 7539 ft 231 kts 258°
2026-05-07 17:43 27.63827 -15.16001 7314 ft 224 kts 282°
2026-05-07 17:43 27.64298 -15.17678 7075 ft 226 kts 292°
2026-05-07 17:43 27.64902 -15.19327 6836 ft 228 kts 293°
2026-05-07 17:44 27.65504 -15.20975 6587 ft 227 kts 293°
2026-05-07 17:44 27.66095 -15.22624 6332 ft 227 kts 293°
2026-05-07 17:44 27.66680 -15.24274 6067 ft 226 kts 293°
2026-05-07 17:44 27.67262 -15.25920 5820 ft 226 kts 293°
2026-05-07 17:45 27.67835 -15.27549 5569 ft 225 kts 292°
2026-05-07 17:45 27.68410 -15.29187 5321 ft 224 kts 292°
2026-05-07 17:45 27.68984 -15.30822 5079 ft 223 kts 292°
2026-05-07 17:45 27.69555 -15.32456 4844 ft 223 kts 292°
2026-05-07 17:46 27.70115 -15.34058 4721 ft 217 kts 292°
2026-05-07 17:46 27.70661 -15.35620 4593 ft 211 kts 292°
2026-05-07 17:46 27.71199 -15.37162 4346 ft 211 kts 293°
2026-05-07 17:46 27.71733 -15.38691 4138 ft 209 kts 293°
2026-05-07 17:47 27.72264 -15.40213 3916 ft 208 kts 293°
2026-05-07 17:47 27.72785 -15.41708 3822 ft 202 kts 294°
2026-05-07 17:47 27.73519 -15.43030 3624 ft 201 kts 324°
2026-05-07 17:47 27.74729 -15.43728 3477 ft 193 kts 335°
2026-05-07 17:48 27.75930 -15.44364 3283 ft 187 kts 335°
2026-05-07 17:48 27.77092 -15.44977 3092 ft 181 kts 338°
2026-05-07 17:48 27.78307 -15.45121 2898 ft 177 kts 16°
2026-05-07 17:48 27.79454 -15.44669 2686 ft 174 kts 16°
2026-05-07 17:49 27.80586 -15.44238 2466 ft 170 kts 18°
2026-05-07 17:49 27.81674 -15.43773 2232 ft 165 kts 21°
2026-05-07 17:49 27.82706 -15.43316 2030 ft 154 kts 20°
2026-05-07 17:49 27.83666 -15.42890 1838 ft 142 kts 20°
2026-05-07 17:50 27.84557 -15.42495 1639 ft 134 kts 22°
2026-05-07 17:50 27.85409 -15.42116 1462 ft 133 kts 21°
2026-05-07 17:50 27.86278 -15.41730 1302 ft 137 kts 20°
2026-05-07 17:50 27.87185 -15.41328 1098 ft 142 kts 21°
2026-05-07 17:51 27.88096 -15.40924 945 ft 138 kts 21°
2026-05-07 17:51 27.88991 -15.40534 746 ft 137 kts 22°
2026-05-07 17:51 27.89867 -15.40122 505 ft 136 kts 23°
2026-05-07 17:51 27.90711 -15.39738 372 ft 131 kts 19°
2026-05-07 17:52 27.91568 -15.39370 197 ft 132 kts 20°
2026-05-07 17:52 27.92423 -15.38992 87 ft 126 kts 20°
2026-05-07 17:52 27.93177 -15.38664 57 ft 105 kts 20°
2026-05-07 17:52 27.93718 -15.38425 56 ft 62 kts 21°
2026-05-07 17:53 27.94003 -15.38300 56 ft 37 kts 21°
2026-05-07 17:53 27.94226 -15.38200 51 ft 24 kts 21°
2026-05-07 17:53 27.94372 -15.38136 43 ft 19 kts 21°
2026-05-07 17:53 27.94461 -15.38121 43 ft 11 kts 332°
2026-05-07 17:54 27.94470 -15.38193 42 ft 10 kts 238°
2026-05-07 17:54 27.94427 -15.38255 48 ft 10 kts 232°
2026-05-07 17:54 27.94382 -15.38313 51 ft 10 kts 221°
2026-05-07 17:54 27.94324 -15.38349 55 ft 9 kts 201°
2026-05-07 17:55 27.94264 -15.38375 53 ft 9 kts 202°
2026-05-07 17:55 27.94206 -15.38401 57 ft 9 kts 201°
2026-05-07 17:55 27.94145 -15.38428 61 ft 9 kts 201°
2026-05-07 17:55 27.94085 -15.38454 67 ft 9 kts 201°
2026-05-07 17:56 27.94051 -15.38502 71 ft 8 kts 277°
2026-05-07 17:56 27.94068 -15.38557 74 ft 6 kts 291°
2026-05-07 17:56 27.94087 -15.38598 77 ft 6 kts 322°
2026-05-07 17:56 27.94124 -15.38614 71 ft 6 kts 310°
2026-05-07 17:57 27.94139 -15.38654 82 ft 5 kts 291°
2026-05-07 17:57 27.94146 -15.38673 87 ft 3 kts 291°
2026-05-07 17:57 27.94151 -15.38689 84 ft 0 kts 292°